CW3783 Weather Reports


time (UTC)temp
C
wind
direction
speed
KPH
gust
KPH
rain 1hr
cm
rain 24hr
cm
rain mn
cm
humidity
%
barometer
mb
20260505130303 21 211 8.0 12.9 0.00 0.00 0.00 53 1010.6
20260505124803 20 237 4.8 14.5 0.00 0.00 0.00 56 1010.4
20260505124303 20 233 4.8 14.5 0.00 0.00 0.00 56 1010.4
20260505123304 19 231 6.4 12.9 0.00 0.00 0.00 56 1010.3
20260505122804 19 238 3.2 16.1 0.00 0.00 0.00 57 1010.2
20260505122305 18 218 1.6 14.5 0.00 0.00 0.00 58 1010.3
20260505121804 18 220 8.0 19.3 0.00 0.00 0.00 58 1010.3
20260505121303 18 194 4.8 16.1 0.00 0.00 0.00 59 1010.2
20260505120803 18 231 9.7 19.3 0.00 0.00 0.00 59 1010.2
20260505120304 18 259 4.8 19.3 0.00 0.00 0.00 61 1010.1
20260505115305 17 225 11.3 19.3 0.00 0.00 0.00 61 1010.1
20260505114803 17 206 4.8 8.0 0.00 0.00 0.00 62 1010.1
20260505114303 17 219 8.0 19.3 0.00 0.00 0.00 62 1010.1
20260505113304 16 234 8.0 14.5 0.00 0.00 0.00 64 1010.0
20260505112804 16 236 6.4 14.5 0.00 0.00 0.00 64 1010.0
20260505112305 16 184 3.2 11.3 0.00 0.00 0.00 64 1010.0
20260505111804 16 227 9.7 19.3 0.00 0.00 0.00 64 1009.9
20260505111305 16 176 4.8 14.5 0.00 0.00 0.00 65 1009.8
20260505110803 16 213 6.4 19.3 0.00 0.00 0.00 65 1009.8
20260505110303 16 218 8.0 14.5 0.00 0.00 0.00 65 1009.7
20260505101804 15 212 4.8 11.3 0.00 0.00 0.00 66 1009.2
20260505101304 15 198 4.8 16.1 0.00 0.00 0.00 65 1009.3
20260505100803 15 211 6.4 16.1 0.00 0.00 0.00 65 1009.2
20260505100303 15 200 8.0 14.5 0.00 0.00 0.00 65 1009.1
20260505095304 15 233 4.8 14.5 0.00 0.00 0.00 65 1009.0
20260505094804 15 225 4.8 12.9 0.00 0.00 0.00 65 1009.0
20260505094304 15 220 4.8 14.5 0.00 0.00 0.00 65 1008.9
20260505093805 15 225 8.0 16.1 0.00 0.00 0.00 65 1009.0
20260505093303 15 226 8.0 19.3 0.00 0.00 0.00 65 1008.9
20260505092804 15 208 4.8 14.5 0.00 0.00 0.00 65 1008.9
20260505092305 15 216 8.0 16.1 0.00 0.00 0.00 65 1008.9
20260505091804 15 208 6.4 14.5 0.00 0.00 0.00 65 1008.9
20260505091304 15 236 6.4 16.1 0.00 0.00 0.00 65 1008.9
20260505090803 15 217 4.8 16.1 0.00 0.00 0.00 65 1008.9
20260505090304 15 227 6.4 19.3 0.00 0.00 0.00 65 1008.9
20260505085803 15 210 9.7 19.3 0.00 0.00 0.00 65 1009.0
20260505085305 15 211 8.0 19.3 0.00 0.00 0.00 65 1009.0
20260505084804 15 214 8.0 19.3 0.00 0.00 0.00 65 1008.9
20260505084304 15 220 6.4 16.1 0.00 0.00 0.00 65 1009.0
20260505083804 15 214 4.8 12.9 0.00 0.00 0.00 65 1008.9
20260505083304 15 209 6.4 12.9 0.00 0.00 0.00 64 1008.9
20260505081804 15 190 6.4 16.1 0.00 0.00 0.00 65 1008.9
20260505081303 15 204 6.4 16.1 0.00 0.00 0.00 65 1008.9
20260505080803 15 219 8.0 14.5 0.00 0.00 0.00 64 1008.9
20260505075803 15 202 8.0 14.5 0.00 0.00 0.00 64 1008.9
20260505074803 15 199 4.8 14.5 0.00 0.00 0.00 64 1008.9
20260505074303 16 202 6.4 12.9 0.00 0.00 0.00 64 1008.9
20260505073804 16 196 8.0 14.5 0.00 0.00 0.00 63 1008.9
20260505073304 16 217 4.8 14.5 0.00 0.00 0.00 63 1008.8
20260505072803 16 203 6.4 11.3 0.00 0.00 0.00 63 1008.7
20260505072305 16 210 4.8 12.9 0.00 0.00 0.00 63 1008.8
20260505071803 16 198 3.2 8.0 0.00 0.00 0.00 62 1008.7
20260505070804 16 216 6.4 9.7 0.00 0.00 0.00 62 1008.7
20260505070304 16 208 4.8 14.5 0.00 0.00 0.00 61 1008.7
20260505065804 16 198 8.0 16.1 0.00 0.00 0.00 61 1008.7
20260505065304 16 205 4.8 11.3 0.00 0.00 0.00 61 1008.6
20260505064803 16 220 6.4 12.9 0.00 0.00 0.00 61 1008.6
20260505064304 16 209 8.0 14.5 0.00 0.00 0.00 61 1008.6
20260505063804 16 223 6.4 12.9 0.00 0.00 0.00 61 1008.6
20260505063303 16 232 6.4 12.9 0.00 0.00 0.00 61 1008.6
20260505062304 16 213 6.4 16.1 0.00 0.00 0.00 61 1008.6
20260505061804 16 236 4.8 14.5 0.00 0.00 0.00 62 1008.6
20260505061304 16 239 6.4 11.3 0.00 0.00 0.00 61 1008.7
20260505060803 16 203 3.2 12.9 0.00 0.00 0.00 61 1008.7
20260505055803 16 229 4.8 12.9 0.00 0.00 0.00 61 1008.7
20260505055304 16 233 4.8 11.3 0.00 0.00 0.00 61 1008.7
20260505054803 16 237 8.0 12.9 0.00 0.00 0.00 60 1008.8
20260505054303 16 234 4.8 12.9 0.00 0.00 0.00 60 1008.8
20260505053803 16 207 8.0 12.9 0.00 0.00 0.00 60 1009.1
20260505053304 16 191 4.8 12.9 0.00 0.00 0.00 60 1009.1
20260505052804 16 210 6.4 9.7 0.00 0.00 0.00 60 1008.9
20260505052304 16 204 6.4 9.7 0.00 0.00 0.00 60 1008.9
20260505051803 16 214 4.8 11.3 0.00 0.00 0.00 60 1008.9
20260505051304 16 216 6.4 12.9 0.00 0.00 0.00 60 1009.0
20260505041303 16 199 4.8 8.0 0.00 0.00 0.00 58 1008.7
20260505040803 16 188 4.8 8.0 0.00 0.00 0.00 58 1008.7
20260505040303 17 204 4.8 8.0 0.00 0.00 0.00 57 1008.7
20260505035803 17 215 3.2 4.8 0.00 0.00 0.00 57 1008.7
20260505035304 17 220 3.2 8.0 0.00 0.00 0.00 56 1008.7
20260505034804 17 214 4.8 11.3 0.00 0.00 0.00 56 1008.7
20260505034303 17 209 4.8 4.8 0.00 0.00 0.00 56 1008.7
20260505033803 17 220 4.8 9.7 0.00 0.00 0.00 56 1008.7
20260505033304 17 206 3.2 4.8 0.00 0.00 0.00 55 1008.8
20260505032803 17 207 4.8 12.9 0.00 0.00 0.00 55 1008.7
20260505032304 17 209 4.8 11.3 0.00 0.00 0.00 55 1008.7
20260505031803 17 211 6.4 9.7 0.00 0.00 0.00 55 1008.6
20260505031303 17 216 4.8 8.0 0.00 0.00 0.00 55 1008.6
20260505030303 17 210 4.8 11.3 0.00 0.00 0.00 54 1008.5
20260505025803 17 212 4.8 9.7 0.00 0.00 0.00 54 1008.6
20260505024303 17 207 4.8 4.8 0.00 0.00 0.00 54 1008.7
20260505023303 18 217 4.8 9.7 0.00 0.00 0.00 54 1008.7
20260505022803 17 191 4.8 9.7 0.00 0.00 0.00 53 1008.6
20260505022304 18 199 4.8 9.7 0.00 0.00 0.00 53 1008.6
20260505021804 18 192 4.8 8.0 0.00 0.00 0.00 53 1008.6
20260505021303 18 198 4.8 12.9 0.00 0.00 0.00 53 1008.7
20260505020804 18 212 3.2 4.8 0.00 0.00 0.00 53 1008.7
20260505020304 18 206 3.2 4.8 0.00 0.00 0.00 53 1008.7
20260505015804 18 196 4.8 11.3 0.00 0.00 0.00 53 1008.6
20260505015303 18 201 6.4 11.3 0.00 0.00 0.00 53 1008.6
20260505014803 18 206 8.0 12.9 0.00 0.00 0.00 53 1008.5
20260505014304 18 201 4.8 12.9 0.00 0.00 0.00 53 1008.4
20260505013804 18 192 4.8 8.0 0.00 0.00 0.00 53 1008.4
20260505013304 18 183 4.8 8.0 0.00 0.00 0.00 53 1008.2
20260505012803 18 196 3.2 8.0 0.00 0.00 0.00 53 1008.3
20260505012304 18 185 4.8 11.3 0.00 0.00 0.00 52 1008.3
20260505011803 18 193 4.8 8.0 0.00 0.00 0.00 52 1008.3
20260505011303 18 190 4.8 9.7 0.00 0.00 0.00 51 1008.3
20260505010803 18 194 4.8 12.9 0.00 0.00 0.00 51 1008.2
20260505010304 19 183 4.8 8.0 0.00 0.00 0.00 50 1008.2
20260505005804 19 204 4.8 4.8 0.00 0.00 0.00 50 1008.2
20260505005304 19 193 4.8 8.0 0.00 0.00 0.00 50 1008.2
20260505004303 20 185 4.8 9.7 0.00 0.00 0.00 48 1008.1
20260505003803 20 161 3.2 4.8 0.00 0.00 0.00 48 1008.0
20260505003304 20 181 3.2 4.8 0.00 0.00 0.00 48 1008.1
20260505002304 20 205 4.8 8.0 0.00 0.00 0.00 47 1008.1
20260505001804 20 194 4.8 12.9 0.00 0.00 0.00 47 1008.1
20260505001303 20 177 8.0 14.5 0.00 0.00 0.00 46 1007.9
20260505000803 20 182 8.0 14.5 0.00 0.00 0.00 46 1007.9
20260504235803 20 195 8.0 12.9 0.00 0.00 0.00 45 1007.8
20260504235304 21 180 8.0 14.5 0.00 0.00 0.00 44 1007.8
20260504234804 21 168 8.0 12.9 0.00 0.00 0.00 44 1007.8
20260504232803 21 185 8.0 16.1 0.00 0.00 0.00 43 1007.9
20260504232304 21 177 12.9 20.9 0.00 0.00 0.00 42 1007.9
20260504231303 22 186 8.0 19.3 0.00 0.00 0.00 41 1007.9
20260504230803 22 195 8.0 19.3 0.00 0.00 0.00 41 1007.9
20260504230303 22 183 14.5 27.4 0.00 0.00 0.00 40 1007.9
20260504225804 22 194 16.1 27.4 0.00 0.00 0.00 40 1007.9
20260504225304 22 182 11.3 19.3 0.00 0.00 0.00 39 1007.9
20260504224803 23 192 11.3 24.1 0.00 0.00 0.00 39 1007.8
20260504224304 23 155 9.7 25.7 0.00 0.00 0.00 39 1007.8
20260504223304 23 171 14.5 24.1 0.00 0.00 0.00 36 1007.7
20260504222803 23 163 12.9 27.4 0.00 0.00 0.00 34 1007.5
20260504222305 24 188 12.9 22.5 0.00 0.00 0.00 33 1007.6
20260504221804 24 202 9.7 19.3 0.00 0.00 0.00 34 1007.6
20260504221303 24 205 14.5 24.1 0.00 0.00 0.00 33 1007.6
20260504220303 24 190 14.5 24.1 0.00 0.00 0.00 33 1007.5
20260504215803 24 208 14.5 32.2 0.00 0.00 0.00 33 1007.6
20260504215305 24 195 14.5 27.4 0.00 0.00 0.00 33 1007.6
20260504214803 24 205 17.7 29.0 0.00 0.00 0.00 33 1007.7
20260504214304 24 192 11.3 22.5 0.00 0.00 0.00 33 1007.7
20260504213803 24 196 9.7 16.1 0.00 0.00 0.00 33 1007.7
20260504213303 24 184 3.2 12.9 0.00 0.00 0.00 34 1007.7
20260504212803 24 196 9.7 22.5 0.00 0.00 0.00 34 1007.8
20260504212304 24 205 17.7 29.0 0.00 0.00 0.00 33 1007.9
20260504211304 25 183 11.3 27.4 0.00 0.00 0.00 33 1007.8
20260504210803 25 199 9.7 20.9 0.00 0.00 0.00 33 1007.9
20260504210304 25 211 8.0 16.1 0.00 0.00 0.00 34 1007.8
20260504205803 25 188 9.7 19.3 0.00 0.00 0.00 33 1007.9
20260504204803 25 190 14.5 27.4 0.00 0.00 0.00 32 1007.8
20260504204303 25 163 6.4 24.1 0.00 0.00 0.00 34 1007.9
20260504203803 25 184 19.3 32.2 0.00 0.00 0.00 33 1008.0
20260504202803 25 176 11.3 22.5 0.00 0.00 0.00 33 1008.2
20260504201804 25 209 8.0 19.3 0.00 0.00 0.00 34 1008.2
20260504201303 25 200 8.0 29.0 0.00 0.00 0.00 34 1008.3
20260504200303 25 209 11.3 24.1 0.00 0.00 0.00 34 1008.3
20260504195803 25 198 11.3 22.5 0.00 0.00 0.00 33 1008.4
20260504195304 25 187 16.1 29.0 0.00 0.00 0.00 34 1008.4
20260504194804 24 292 3.2 12.9 0.00 0.00 0.00 36 1008.5
20260504194303 24 224 16.1 24.1 0.00 0.00 0.00 34 1008.7
20260504193303 24 181 19.3 29.0 0.00 0.00 0.00 34 1008.9
20260504192804 24 193 8.0 32.2 0.00 0.00 0.00 34 1009.0
20260504192304 24 182 9.7 16.1 0.00 0.00 0.00 35 1009.0
20260504191804 24 211 8.0 20.9 0.00 0.00 0.00 35 1009.2
20260504191304 24 206 11.3 24.1 0.00 0.00 0.00 35 1009.3
20260504190303 24 208 8.0 27.4 0.00 0.00 0.00 35 1009.4
20260504185803 24 196 16.1 25.7 0.00 0.00 0.00 33 1009.4
20260504185304 24 193 14.5 22.5 0.00 0.00 0.00 34 1009.5
20260504184803 24 178 11.3 19.3 0.00 0.00 0.00 35 1009.7
20260504184303 24 226 4.8 20.9 0.00 0.00 0.00 35 1009.7
20260504183803 24 212 12.9 24.1 0.00 0.00 0.00 34 1009.8
20260504183303 23 184 12.9 22.5 0.00 0.00 0.00 34 1009.9
20260504182804 23 201 8.0 20.9 0.00 0.00 0.00 33 1009.9
20260504182304 23 216 4.8 20.9 0.00 0.00 0.00 35 1009.9
20260504181803 23 290 8.0 16.1 0.00 0.00 0.00 35 1009.9
20260504181304 23 270 14.5 24.1 0.00 0.00 0.00 33 1010.0
20260504180804 23 202 12.9 27.4 0.00 0.00 0.00 34 1010.1
20260504180303 23 173 14.5 25.7 0.00 0.00 0.00 34 1010.1
20260504175803 23 189 9.7 22.5 0.00 0.00 0.00 34 1010.3
20260504175304 23 217 11.3 19.3 0.00 0.00 0.00 33 1010.3
20260504174803 23 197 14.5 24.1 0.00 0.00 0.00 32 1010.4
20260504174303 23 232 16.1 27.4 0.00 0.00 0.00 32 1010.4
20260504173805 23 184 11.3 19.3 0.00 0.00 0.00 34 1010.4
20260504173304 23 147 11.3 24.1 0.00 0.00 0.00 32 1010.5
20260504172803 23 190 11.3 24.1 0.00 0.00 0.00 32 1010.6
20260504172304 23 189 8.0 22.5 0.00 0.00 0.00 32 1010.6
20260504171803 23 253 9.7 19.3 0.00 0.00 0.00 33 1010.7
20260504170304 22 264 6.4 20.9 0.00 0.00 0.00 35 1010.9
20260504160304 21 212 9.7 20.9 0.00 0.00 0.00 35 1011.7
20260504150803 20 185 9.7 16.1 0.00 0.00 0.00 36 1012.3
20260504150303 20 172 12.9 19.3 0.00 0.00 0.00 38 1012.3
20260504141304 18 175 4.8 9.7 0.00 0.00 0.00 45 1012.4
20260504140804 18 177 3.2 11.3 0.00 0.00 0.00 48 1012.5
20260504140304 17 143 6.4 12.9 0.00 0.00 0.00 49 1012.6